Brownsville, TX

7:11 AM CDT on April 25, 2017 (GMT -0500)
Brownsville-South Padre I International

Weather History for KBRO - July, 2013

Change the Weather History Date:

Monday, July 22, 2013

  Actual Average Record
Temperature  
Mean Temperature 87 °F 85 °F  
Max Temperature 94 °F 94 °F 99 °F (1920)
Min Temperature 80 °F 76 °F 68 °F (1908)
Degree Days  
Heating Degree Days 0 0  
Month to date heating degree days 0 0  
Since 1 June heating degree days 0 0  
Since 1 July heating degree days 0 0  
Cooling Degree Days 22 20  
Month to date cooling degree days 435 440  
Year to date cooling degree days 2180 2100  
Since 1 June cooling degree days 1058 1007  
Growing Degree Days 36 (Base 50)    
Moisture  
Dew Point 77 °F    
Average Humidity 75    
Maximum Humidity 94    
Minimum Humidity 56    
Precipitation  
Precipitation 0.00 in 0.05 in 0.73 in (1991)
Month to date precipitation 2.13 1.55  
Year to date precipitation 8.58 11.88  
Sea Level Pressure  
Sea Level Pressure 29.95 in    
Wind  
Wind Speed 17 mph (SSE)    
Max Wind Speed 28 mph    
Max Gust Speed 33 mph    
Visibility 10 miles    
Events      
T = Trace of Precipitation, MM = Missing Value Source: NWS Daily Summary

Daily Weather History Graph

Daily Weather History Graph

Search for Another Location

Airport or City:

Trip Planner

Search our weather history database for the weather conditions in past years. The results will help you decide how hot, cold, wet, or windy it might be!

Date:

Astronomy

Jul. 22, 2013 Rise Set
Actual Time 6:51 AM CDT 8:21 PM CDT
Civil Twilight 6:25 AM CDT 8:46 PM CDT
Nautical Twilight 5:55 AM CDT 9:16 PM CDT
Astronomical Twilight 5:24 AM CDT 9:47 PM CDT
Moon 8:17 PM CDT (7/22) 6:42 AM CDT (7/22)
Length of Visible Light 14h 20m
Length of Day
13h 30m
Full, 100% of the Moon is Illuminated
Jul 22
Full
Jul 22
Full
Jul 29
Last Quarter
Aug 6
New
Aug 14
First Quarter

Hourly Weather History & Observations

Time (CDT) Temp. Heat Index Dew Point Humidity Pressure Visibility Wind Dir Wind Speed Gust Speed Precip Events Conditions
12:53 AM 82.9 °F 93.8 °F 79.0 °F 88% 29.97 in 10.0 mi SSE 13.8 mph - N/A   Clear
1:53 AM 82.0 °F 91.6 °F 79.0 °F 90% 29.96 in 10.0 mi SSE 12.7 mph - N/A   Scattered Clouds
2:53 AM 82.0 °F 91.6 °F 79.0 °F 90% 29.94 in 10.0 mi SE 11.5 mph - N/A   Scattered Clouds
3:02 AM 82.4 °F 92.4 °F 78.8 °F 89% 29.93 in 10.0 mi SSE 12.7 mph - N/A   Mostly Cloudy
3:12 AM 82.4 °F 92.4 °F 78.8 °F 89% 29.93 in 10.0 mi SSE 11.5 mph - N/A   Scattered Clouds
3:53 AM 81.0 °F 88.6 °F 78.1 °F 91% 29.93 in 10.0 mi SSE 10.4 mph - N/A   Clear
4:53 AM 81.0 °F 88.6 °F 78.1 °F 91% 29.93 in 10.0 mi SSE 10.4 mph - N/A   Clear
5:18 AM 80.6 °F 88.1 °F 78.8 °F 94% 29.93 in 10.0 mi SSE 6.9 mph - N/A   Mostly Cloudy
5:53 AM 80.1 °F 86.4 °F 78.1 °F 94% 29.93 in 10.0 mi SSE 6.9 mph - N/A   Scattered Clouds
6:53 AM 80.1 °F 86.4 °F 78.1 °F 94% 29.93 in 10.0 mi SSE 8.1 mph - N/A   Mostly Cloudy
7:53 AM 81.0 °F 89.2 °F 79.0 °F 94% 29.96 in 10.0 mi SSE 8.1 mph - N/A   Overcast
8:53 AM 84.9 °F 96.6 °F 78.1 °F 80% 29.98 in 10.0 mi SSE 18.4 mph 23.0 mph N/A   Mostly Cloudy
9:53 AM 88.0 °F 100.2 °F 77.0 °F 70% 29.99 in 10.0 mi SSE 18.4 mph 25.3 mph N/A   Mostly Cloudy
10:17 AM 87.8 °F 99.7 °F 77.0 °F 70% 29.99 in 10.0 mi South 18.4 mph 23.0 mph N/A   Mostly Cloudy
10:43 AM 91.4 °F 102.5 °F 75.2 °F 59% 29.99 in 10.0 mi SSE 16.1 mph 25.3 mph N/A   Mostly Cloudy
10:53 AM 89.1 °F 100.2 °F 75.9 °F 65% 29.99 in 10.0 mi South 17.3 mph 24.2 mph N/A   Mostly Cloudy
11:53 AM 91.0 °F 102.9 °F 75.9 °F 61% 29.98 in 10.0 mi SSE 23.0 mph 31.1 mph N/A   Mostly Cloudy
12:53 PM 91.0 °F 102.9 °F 75.9 °F 61% 29.98 in 10.0 mi SSE 21.9 mph 31.1 mph N/A   Mostly Cloudy
1:53 PM 91.9 °F 103.9 °F 75.9 °F 59% 29.97 in 10.0 mi SSE 24.2 mph 27.6 mph N/A   Scattered Clouds
2:53 PM 93.0 °F 105.3 °F 75.9 °F 57% 29.96 in 10.0 mi SSE 24.2 mph 31.1 mph N/A   Mostly Cloudy
3:53 PM 91.0 °F 104.2 °F 77.0 °F 63% 29.94 in 10.0 mi SSE 24.2 mph 31.1 mph N/A   Overcast
4:53 PM 91.0 °F 102.9 °F 75.9 °F 61% 29.93 in 10.0 mi SSE 24.2 mph 33.4 mph N/A   Mostly Cloudy
5:53 PM 90.0 °F 101.3 °F 75.9 °F 63% 29.91 in 10.0 mi SSE 24.2 mph 31.1 mph N/A   Scattered Clouds
6:53 PM 88.0 °F 100.2 °F 77.0 °F 70% 29.91 in 10.0 mi SSE 23.0 mph 26.5 mph N/A   Partly Cloudy
7:53 PM 86.0 °F 96.9 °F 77.0 °F 74% 29.92 in 10.0 mi SSE 21.9 mph 29.9 mph N/A   Scattered Clouds
8:53 PM 84.0 °F 94.8 °F 78.1 °F 82% 29.93 in 10.0 mi SSE 18.4 mph - N/A   Clear
9:53 PM 82.9 °F 92.8 °F 78.1 °F 85% 29.96 in 10.0 mi SSE 13.8 mph - N/A   Clear
10:53 PM 82.0 °F 91.0 °F 78.1 °F 88% 29.98 in 10.0 mi SSE 13.8 mph - N/A   Clear
11:53 PM 82.0 °F 90.2 °F 77.0 °F 85% 29.99 in 10.0 mi SSE 10.4 mph - N/A   Scattered Clouds